Regional Weather Roundup
Issued by NWS Goodland, KS

Home | Current Version | Previous Version | Text Only | Print | Product List | Glossary On
Versions: 1 2 3 4 5 6 7 8 9 10 11 12 13 14 15 16 17 18 19 20 21 22 23 24 25 26 27 28 29 30 31 32 33 34 35 36 37 38 39 40 41 42 43 44 45 46 47 48 49 50
000
ASUS43 KGLD 281508
RWRGLD

GOODLAND FORECAST AREA HOURLY WEATHER ROUNDUP
NATIONAL WEATHER SERVICE GOODLAND KS
800 AM MST TUE FEB 28 2017

...OFFICIAL OBSERVATIONS...

CITY           SKY/WX    TMP DP  RH WIND       PRES   REMARKS
GOODLAND KS    CLOUDY    35  22  58 N15       29.72R
HILL CITY KS   MOSUNNY   36  27  69 NW13      29.72R
IMPERIAL NEB   CLOUDY    33  19  56 N17       29.74R
MCCOOK NEB     CLOUDY    35  27  72 NW15      29.71R
AKRON CO       CLOUDY    28  19  69 N13       29.71S WCI  17
BURLINGTON CO  CLOUDY    32  18  56 N14       29.71R
LIMON CO       CLOUDY   N/A N/A N/A N13       29.70R
$$

...UNOFFICIAL OBSERVATIONS...

CITY           SKY/WX    TMP DP  RH WIND       PRES   REMARKS
LENORA KS        N/A     33  32  96 NW6         N/A
NORTON KS      SUNNY     36  25  64 NW12      29.71R
SHARON SPRINGS   N/A     36  22  56 N12         N/A
TRENTON NEB      N/A     32  32 100 NW12        N/A
KIT CARSON CO    N/A     33  16  49 MISG        N/A
YUMA CO        CLOUDY    30  18  59 NW15G22   29.71F WCI  19
$$




USA.gov is the U.S. government's official web portal to all federal, state and local government web resources and services.